This demonstration page uses our WeatherBlox Daily Observations layout. Learn more.

Left ArrowRight Arrow

36.19886, -115.1175

Hourly Observations for February 12, 2017

Temp ( °F °C ) Dew Point ( °F °C ) Humidity (%) Winds ( mph kmh ) Pressure ( in mb ) Visibility ( mi km ) Precip ( " mm )
12:53 am 00:53 Cloudy 53 11.7 43 6.1 69 69 N 7 11 30.18 1022 10 16 0.00 0.03
1:53 am 01:53 Cloudy with Light Rain 52 11.1 41 5 66 66 NNW 10 17 30.17 1022 10 16 0.00 0.03
2:53 am 02:53 Cloudy 52 11.1 40 4.4 64 64 NNW 14 22 30.18 1022 10 16 0.00 0.03
3:53 am 03:53 Cloudy 52 11.1 38 3.3 59 59 NNW 15 24 30.18 1022 10 16 0.01 0.25
4:53 am 04:53 Cloudy 53 11.7 33 0.6 47 47 NNW 18 30 30.19 1022 10 16 0.00 0.00
5:53 am 05:53 Cloudy 52 11.1 34 1.1 50 50 NNW 22 35 30.19 1023 10 16 0.00 0.03
6:53 am 06:53 Mostly Cloudy 52 11.1 32 0 47 47 NNW 16 26 30.22 1024 10 16 0.00 0.00
7:53 am 07:53 Mostly Cloudy 53 11.7 31 -0.6 43 43 NNW 17 28 30.24 1024 10 16 0.00 0.00
8:53 am 08:53 Mostly Cloudy 55 12.8 30 -1.1 38 38 NNW 16 26 30.24 1024 10 16 0.00 0.00
9:53 am 09:53 Sunny 59 15 29 -1.7 32 32 NNW 23 37 30.24 1024 10 16 0.00 0.00
10:53 am 10:53 Sunny 60 15.6 30 -1.1 32 32 N 12 19 30.24 1024 10 16 0.00 0.00
11:53 am 11:53 Mostly Sunny 62 16.7 31 -0.6 31 31 N 14 22 30.21 1023 10 16 0.00 0.00
12:53 pm 12:53 Mostly Cloudy 62 16.7 31 -0.6 31 31 NNE 15 24 30.18 1022 10 16 0.00 0.00
1:53 pm 13:53 Cloudy 63 17.2 31 -0.6 30 30 N 10 17 30.16 1021 10 16 0.00 0.00
2:53 pm 14:53 Cloudy 63 17.2 32 0 31 31 N 14 22 30.15 1021 10 16 0.00 0.00
3:53 pm 15:53 Cloudy 62 16.7 34 1.1 35 35 NE 9 15 30.16 1021 10 16 0.00 0.00
4:53 pm 16:53 Cloudy 62 16.7 33 0.6 34 34 ENE 7 11 30.16 1021 10 16 0.00 0.00
5:53 pm 17:53 Cloudy 61 16.1 35 1.7 38 38 NE 5 7 30.16 1021 10 16 0.00 0.00
6:53 pm 18:53 Cloudy 61 16.1 34 1.1 36 36 N 8 13 30.15 1021 10 16 0.00 0.00
7:53 pm 19:53 Cloudy 60 15.6 33 0.6 36 36 NNE 9 15 30.16 1021 10 16 0.00 0.00
8:53 pm 20:53 Cloudy 58 14.4 35 1.7 42 42 E 5 7 30.17 1022 10 16 0.00 0.00
9:53 pm 21:53 Cloudy 58 14.4 33 0.6 39 39 NE 8 13 30.15 1021 10 16 0.00 0.00
10:53 pm 22:53 Cloudy 59 15 31 -0.6 35 35 N 10 17 30.15 1021 10 16 0.00 0.00
11:53 pm 23:53 Cloudy 58 14.4 30 -1.1 35 35 N 9 15 30.14 1021 10 16 0.00 0.03

Powered by AerisWeather